Location: Newark
(41.8083°N, 72.2500°W)
Time: 11:10:30
(UTC+00:00)

Altair - Pass Details

Date: 08 December 2021
Orbit: 1501 x 1683 km, 47.2° (Epoch: 27 January)

Event Time Altitude Azimuth Distance (km) Brightness Sun altitude
Rises 02:13:34 0° 296° (WNW) 4,665 10.6 -53.9°
Reaches altitude 10° 02:16:48 10° 290° (WNW) 3,668 9.9 -54.5°
Enters shadow 02:19:49 22° 279° (W) 2,827 9.1 -55.0°
